国际通讯卫星 2-F4星 (INTELSAT 2-F4)

导读 | 星芒AI

INTELSAT 2-F4 是一颗由国际通信卫星组织(INTELSAT)运营的通信卫星,于1967年5月24日由NASA的“天王星”火箭从卡纳维拉尔角发射升空。它是INTELSAT 2系列的一部分,主要用于跨大西洋的电视和电话信号传输。该卫星搭载了多个C波段转发器,显著提升了当时国际通信的能力。尽管技术先进,INTELSAT 2-F4 于1975年退役,最终被INTELSAT 3系列卫星取代。

基本信息
目录编号:
2969
目录名称:
INTELSAT 2-F4
国际标识:
1967-094A
轨道中心:
EARTH
卫星名称:
国际通讯卫星 2-F4星
卫星全名:
国际通讯卫星 2-F4星 (INTELSAT 2-F4)
卫星状态:
在轨 (已飞行21263 天)
发射日期:
1967-09-28 UTC
国别 :
(ITSO)
星等 :
--
轨道信息
数据来源 国际轨道数据
星历时间: 2025-12-14T13:53:26+0800
1天前
查看轨道信息
半长轴: 42141.812km
偏心率: 0.0013413
轨道倾角: 3.606°
近地点辐角 148.748°
升交点赤经 76.137°
平近点角 163.429°
近地点: 35707.152km
远地点: 35820.202km
周期: 1434.926分钟
每日圈数: 1.003536
详细信息
卫星平台:
HS-303A
平衡模式:
自旋稳定
覆盖范围:
全球
运营商:
国际卫星通信公司
运营商所在国:
美国
制造商(研发单位):
休斯公司
制造商所在国:
美国
使用方式:
暂无
卫星简介
从1965年4月至1984年3月,国际通信卫星组织发射了5代、6种不同性能的卫星共计35颗,除6颗卫星因运载火箭和远地点发动机故障而发射失败外,其余29颗卫星均被送到了预定的静止轨道位置。1984年8月前后,国际通信卫星组织利用部署在大西洋、太平洋、印度洋上空的15颗国际通信卫星,为遍布世界各地170多个国家或地区提供电话、电传、电报、电视和数据传输等电信业务;该卫星已退役。
2D轨道图
3D轨道图
轨道高度分析图
轨道倾角分析图
轨道综合分析图
查看轨道综合分析图